Date String (YYYY-MM-DD hh:mm:ss) UTC,Instrument flags,Ambient pressure (hPa),Sample flow (lpm),Bypass flow (lpm),Sample temperature (°C),Ambient temperature (°C),ASC tube jacket temperature (°C),LED temperature (°C),Box temperature (°C),Sample RH (%),Span deviation,Mass concentration (μg/m³),Mass concentration (μg/m³),Mass concentration (μg/m³)
DateTimeUTC,F1_M11,P_M11,Q1_M11,Q2_M11,T1_M11,T2_M11,T3_M11,T4_M11,T5_M11,U1_M11,ZSPAN_M11,X0_M11,X2_M11,X1_M11
2023-04-04 15:00:00,,0814.4,5.01,0.00,22.6,21.1,00.0,31.0,24.1,13.7,0000.0,0003.06,0001.58,0001.19
2023-04-04 15:01:00,,0814.4,5.00,0.00,22.5,20.9,00.0,31.0,24.0,13.7,0000.0,0003.05,0001.60,0001.20
2023-04-04 15:02:00,,0814.4,5.00,0.00,22.5,20.8,00.0,31.0,23.9,13.7,0000.0,0003.02,0001.57,0001.21
2023-04-04 15:03:00,,0814.4,5.00,0.00,22.4,20.7,00.0,31.0,23.9,13.7,0000.0,0003.17,0001.58,0001.22
2023-04-04 15:04:00,,0814.4,5.00,0.00,22.4,20.6,00.0,30.9,23.9,13.7,0000.0,0003.26,0001.61,0001.24
2023-04-04 15:05:00,,0814.4,5.00,0.00,22.4,20.7,00.0,30.9,24.0,13.7,0000.0,0003.33,0001.64,0001.27
2023-04-04 15:06:00,,0814.4,5.01,0.00,22.5,21.8,00.0,30.9,24.4,13.7,0000.0,0003.40,0001.69,0001.30
2023-04-04 15:07:00,,0814.5,4.99,0.00,22.7,22.9,00.0,30.9,24.7,13.6,0000.0,0003.46,0001.74,0001.33
2023-04-04 15:08:00,,0814.4,5.01,0.00,22.8,23.3,00.0,30.9,24.7,13.6,0000.0,0003.28,0001.82,0001.35
2023-04-04 15:09:00,,0814.4,5.00,0.00,22.8,23.0,00.0,31.0,24.6,13.5,0000.0,0002.92,0001.83,0001.38
2023-04-04 15:10:00,,0814.4,4.99,0.00,22.8,22.6,00.0,31.0,24.4,13.5,0000.0,0003.52,0001.84,0001.40
2023-04-04 15:11:00,,0814.4,5.01,0.00,22.7,22.3,00.0,31.0,24.3,13.5,0000.0,0003.83,0001.82,0001.42
2023-04-04 15:12:00,,0814.4,5.00,0.00,22.7,22.0,00.0,31.0,24.3,13.5,0000.0,0003.99,0001.83,0001.45
2023-04-04 15:13:00,,0814.4,5.00,0.00,22.7,21.7,00.0,31.1,24.2,13.5,0000.0,0004.00,0001.84,0001.46
2023-04-04 15:14:00,,0814.3,5.00,0.00,22.7,21.5,00.0,31.0,24.2,13.6,0000.0,0003.90,0001.83,0001.48
2023-04-04 15:15:00,,0814.3,5.00,0.00,22.6,21.3,00.0,31.0,24.1,13.6,0000.0,0003.83,0001.80,0001.48
2023-04-04 15:16:00,,0814.3,5.00,0.00,22.6,21.1,00.0,31.0,24.0,13.6,0000.0,0003.75,0001.78,0001.47
2023-04-04 15:17:00,,0814.3,5.00,0.00,22.6,20.9,00.0,31.0,24.0,13.6,0000.0,0003.57,0001.72,0001.45
2023-04-04 15:18:00,,0814.3,5.01,0.00,22.5,20.8,00.0,31.0,24.0,13.7,0000.0,0003.36,0001.64,0001.43
2023-04-04 15:19:00,,0814.3,5.00,0.00,22.5,20.7,00.0,31.0,24.0,13.7,0000.0,0003.10,0001.53,0001.40
2023-04-04 15:20:00,,0814.3,5.00,0.00,22.5,20.6,00.0,31.0,23.9,13.6,0000.0,0003.08,0001.50,0001.38
2023-04-04 15:21:00,,0814.3,5.00,0.00,22.5,21.3,00.0,30.9,24.2,13.6,0000.0,0002.50,0001.49,0001.37
2023-04-04 15:22:00,,0814.3,4.98,0.00,22.7,22.5,00.0,30.9,24.6,13.5,0000.0,0002.05,0001.47,0001.34
2023-04-04 15:23:00,,0814.4,5.00,0.00,22.8,23.2,00.0,30.9,24.8,13.4,0000.0,0001.83,0001.43,0001.32
2023-04-04 15:24:00,,0814.3,5.00,0.00,22.8,23.1,00.0,31.0,24.7,13.4,0000.0,0001.78,0001.42,0001.30
2023-04-04 15:25:00,,0814.3,5.00,0.00,22.8,22.7,00.0,31.0,24.5,13.3,0000.0,0001.70,0001.39,0001.28
2023-04-04 15:26:00,,0814.3,5.00,0.00,22.8,22.3,00.0,31.1,24.4,13.4,0000.0,0001.73,0001.38,0001.26
2023-04-04 15:27:00,,0814.3,5.00,0.00,22.7,21.9,00.0,31.1,24.2,13.4,0000.0,0001.69,0001.36,0001.25
2023-04-04 15:28:00,,0814.4,5.00,0.00,22.7,21.6,00.0,31.1,24.2,13.4,0000.0,0001.71,0001.37,0001.23
2023-04-04 15:29:00,,0814.3,5.00,0.00,22.7,21.4,00.0,31.1,24.1,13.3,0000.0,0001.65,0001.34,0001.22
2023-04-04 15:30:00,,0814.3,5.00,0.00,22.6,21.2,00.0,31.1,24.1,13.3,0000.0,0001.63,0001.33,0001.21
2023-04-04 15:31:00,,0814.4,5.00,0.00,22.6,21.0,00.0,31.0,24.0,13.4,0000.0,0001.65,0001.33,0001.20
2023-04-04 15:32:00,,0814.3,5.01,0.00,22.6,20.8,00.0,31.0,24.0,13.5,0000.0,0001.62,0001.31,0001.19
2023-04-04 15:33:00,,0814.3,5.01,0.00,22.5,20.7,00.0,31.0,24.0,13.5,0000.0,0001.59,0001.29,0001.18
2023-04-04 15:34:00,,0814.3,5.00,0.00,22.5,20.6,00.0,31.0,23.9,13.5,0000.0,0001.57,0001.28,0001.17
2023-04-04 15:35:00,,0814.3,4.99,0.00,22.5,21.4,00.0,30.9,24.3,13.5,0000.0,0001.53,0001.26,0001.16
2023-04-04 15:36:00,,0814.3,4.99,0.00,22.7,22.5,00.0,30.9,24.7,13.5,0000.0,0001.52,0001.25,0001.15
2023-04-04 15:37:00,,0814.3,5.00,0.00,22.8,23.3,00.0,30.9,24.9,13.4,0000.0,0001.39,0001.21,0001.13
2023-04-04 15:38:00,,0814.3,5.00,0.00,22.9,23.1,00.0,31.0,24.7,13.5,0000.0,0001.35,0001.19,0001.11
2023-04-04 15:39:00,,0814.3,4.99,0.00,22.8,22.7,00.0,31.1,24.5,13.5,0000.0,0001.32,0001.15,0001.10
2023-04-04 15:40:00,,0814.4,5.02,0.00,22.8,22.4,00.0,31.1,24.4,13.6,0000.0,0001.86,0001.15,0001.10
2023-04-04 15:41:00,,0814.4,4.99,0.00,22.8,22.1,00.0,31.1,24.3,13.7,0000.0,0001.82,0001.13,0001.08
2023-04-04 15:42:00,,0814.4,5.00,0.00,22.7,21.8,00.0,31.1,24.2,13.8,0000.0,0001.75,0001.09,0001.06
2023-04-04 15:43:00,,0814.4,5.00,0.00,22.7,21.5,00.0,31.1,24.2,13.8,0000.0,0001.75,0001.08,0001.05
2023-04-04 15:44:00,,0814.4,5.00,0.00,22.6,21.3,00.0,31.1,24.1,13.8,0000.0,0001.74,0001.06,0001.03
2023-04-04 15:45:00,,0814.4,5.01,0.00,22.6,21.2,00.0,31.0,24.2,13.8,0000.0,0001.73,0001.03,0000.99
2023-04-04 15:46:00,,0814.5,5.01,0.00,22.7,22.1,00.0,31.0,24.6,13.7,0000.0,0001.71,0001.00,0000.96
2023-04-04 15:47:00,,0814.5,5.01,0.00,22.9,23.1,00.0,31.0,24.9,13.5,0000.0,0002.17,0000.98,0000.93
2023-04-04 15:48:00,,0814.5,4.99,0.00,23.0,23.4,00.0,31.1,24.9,13.4,0000.0,0002.54,0000.94,0000.89
2023-04-04 15:49:00,,0814.5,4.99,0.00,23.0,23.1,00.0,31.1,24.7,13.4,0000.0,0002.63,0000.92,0000.85
2023-04-04 15:50:00,,0814.5,5.01,0.00,22.9,22.7,00.0,31.2,24.6,13.3,0000.0,0002.62,0000.89,0000.82
2023-04-04 15:51:00,,0814.5,5.01,0.00,22.9,22.3,00.0,31.2,24.5,13.3,0000.0,0002.49,0000.86,0000.79
2023-04-04 15:52:00,,0814.5,4.99,0.00,22.8,22.0,00.0,31.2,24.4,13.3,0000.0,0002.60,0000.83,0000.76
2023-04-04 15:53:00,,0814.5,5.00,0.00,22.8,21.7,00.0,31.2,24.3,13.3,0000.0,0002.64,0000.81,0000.73
2023-04-04 15:54:00,,0814.5,5.00,0.00,22.7,21.4,00.0,31.2,24.2,13.3,0000.0,0002.71,0000.83,0000.72
2023-04-04 15:55:00,,0814.5,5.01,0.00,22.8,21.8,00.0,31.1,24.5,13.2,0000.0,0003.23,0000.84,0000.70
2023-04-04 15:56:00,,0814.6,5.01,0.00,22.9,22.8,00.0,31.1,24.8,13.2,0000.0,0003.54,0000.86,0000.70
2023-04-04 15:57:00,,0814.6,4.99,0.00,23.1,23.6,00.0,31.1,25.1,13.0,0000.0,0003.53,0000.86,0000.69
2023-04-04 15:58:00,,0814.6,4.99,0.00,23.1,23.5,00.0,31.2,24.9,13.0,0000.0,0003.12,0000.87,0000.68
2023-04-04 15:59:00,,0814.6,5.01,0.00,23.1,23.1,00.0,31.3,24.8,13.0,0000.0,0002.70,0000.87,0000.68
